sat.trackr.live / text

‹ back to catalog

ALISIO-1

NORAD 58562 · 2023-185M

PAYLOAD ACTIVE UNKNOWN

§ Identity

Operator
Country
SPN
Launch date
2023-12-01
Launch site
AFWTR
Launch vehicle
Mass (kg)
RCS (m²)

External: N2YO · Heavens-Above · Gunter

§ Orbital elements

Epoch: 2026-05-25T03:59:58.943616Z

Period
94.93 min
Inclination
97.5373°
Eccentricity
0.0007263
Mean motion
15.16872649 rev/d
Perigee alt
510.3 km
Apogee alt
520.3 km
Semi-major
6,893.4 km
B*
1.8466e-4
RAAN
218.6458°
Arg perigee
47.9186°
Mean anomaly
312.2663°
Rev number
13,506

§ Raw data

ALISIO-11 58562U 23185M   26145.16665444  .00003569  00000+0  18466-3 0  99992 58562  97.5373 218.6458 0007263  47.9186 312.2663 15.16872649135066

JSON: /api/v1/satellites/58562 · /tle

For live sub-satellite position, see the globe view (requires WebGL).

§ Visibility from observer

Set your observer location to see the next 7 days of passes ≥ 10°. The values pass through the URL so the page stays shareable.

No JS? Fill the form by hand. The geolocation button needs JavaScript.